Regional Weather Roundup
Issued by NWS

Home | Current Version | Previous Version | Graphics & Text | Print | Product List | Glossary On
Versions: 1 2 3 4 5 6 7 8 9 10 11 12 13 14 15 16 17 18 19 20 21 22 23 24 25 26 27 28 29 30 31 32 33 34 35 36 37 38 39 40 41 42 43 44 45 46 47 48 49 50
000
ASUS43 KIND 252109
RWRIN

WEATHER ROUNDUP FOR INDIANA
NATIONAL WEATHER SERVICE INDIANAPOLIS IN
500 PM EDT WED APR 25 2018

NOTE: "FAIR" INDICATES FEW OR NO CLOUDS BELOW 12,000 FEET WITH NO
SIGNIFICANT WEATHER AND/OR OBSTRUCTIONS TO VISIBILITY.

* - STATION DOES NOT REPORT WEATHER SUCH AS PRECIPITATION OR FOG.

+ - STATION NOT QUALITY CONTROLLED BY THE NATIONAL WEATHER SERVICE.
    USE DATA WITH CAUTION...ESPECIALLY DEWPOINT AND RELATIVE
    HUMIDITY OBSERVATIONS.

INZ001>003-010>013-019-020-252200-
NORTHWEST INDIANA

CITY           SKY/WX    TMP DP  RH WIND       PRES   REMARKS
GARY /AIRPORT/ MOSUNNY   46  32  57 NE12G25   30.07F
KNOX *+        FAIR      52  32  46 N20       30.02F
LA PORTE +     FAIR      49  31  49 N18G28    30.03F
MICHIGAN CITY+ FAIR      45  32  61 N15G22    30.06F
MONTICELLO +   FAIR      57  29  34 N16       30.00F
RENSSELAER +   FAIR      54  18  24 N16G26    30.03S
VALPARAISO     FAIR      52  29  41 N14G23    30.04F

$$

LMZ046-743>745-252200-
SOUTHERN LAKE MICHIGAN

STATION/POSITION TIME  TEMP    WIND        PRES    WAVE
                       AIR SEA DIR/SP/G            HT
                 (UTC) (F)     (DEG/KT/KT) (MB)    (FT)
BURNS HARBOR     2040   41      50/ 13/ 14 1018.6F
MICHIGAN CITY    2040   39      10/ 13/ 15   N/A

$$

INZ004-005-014>016-021>024-252200-
NORTH CENTRAL INDIANA

CITY           SKY/WX    TMP DP  RH WIND       PRES   REMARKS
ELKHART        FAIR      54  28  37 NW14G21   30.00F
GOSHEN         FAIR      55  33  43 NW20G26   29.98F
LOGANSPORT +   FAIR      59  32  36 N16G25    29.99F
PERU/GRISSOM   FAIR      60  30  32 N17       29.96F
ROCHESTER +    FAIR      57  32  38 NW13G23   30.00F
SOUTH BEND     FAIR      49  29  46 NW21      30.03F
WARSAW +       FAIR      55  32  41 NW15G23   29.98F

$$

INZ006>009-017-018-025>027-252200-
NORTHEAST INDIANA

CITY           SKY/WX    TMP DP  RH WIND       PRES   REMARKS
ANGOLA *+      FAIR      63  32  31 NW7G18    29.92F
AUBURN +       FAIR      63  36  36 NW13G18   29.93F
FORT WAYNE     FAIR      64  39  39 NW13G23   29.94F
HUNTINGTON +   FAIR      60  34  36 NW12G21   29.95S
KENDALLVILLE + FAIR      60  32  33 NW9G21    29.94F

$$

INZ028-029-035-036-043>045-051>053-252200-
WEST CENTRAL INDIANA

CITY           SKY/WX    TMP DP  RH WIND       PRES   REMARKS
CRAWFORDSVL +  FAIR      61  39  44 N13       29.98S
GREENCASTLE +  FAIR      63  37  39 NW6       29.98S
LAFAYETTE      FAIR      59  34  39 N17G23    30.00S
TERRE HAUTE    FAIR      66  46  48 NE9       29.96F

$$

INZ030>032-037>040-046>048-054>057-064-065-252200-
CENTRAL INDIANA

CITY           SKY/WX    TMP DP  RH WIND       PRES   REMARKS
COLUMBUS       SUNNY     63  45  51 N9        29.97F
FISHERS *+     PTSUNNY   63  46  55 N7        29.96F
FRANKFORT +    FAIR      64  37  36 N16       30.00S
GREENWOOD *+   PTSUNNY   63  45  53 NW8       29.97F
INDIANAPOLIS   PTSUNNY   64  42  44 NW12      29.96F
-EAGLE CREEK   FAIR      64  42  44 NW7       29.96S
KOKOMO +       FAIR      61  33  35 N16G25    29.97F
MARION +       FAIR      63  34  34 N14       29.96S
MT COMFORT *+  FAIR      63  48  59 NW12G17   29.96F
SHELBYVILLE    FAIR      63  46  54 NW9       29.95F
ZIONSVILLE +   FAIR      61  41  47 N14       29.97S

$$

INZ033-034-041-042-049-050-058-059-252200-
EAST CENTRAL INDIANA

CITY           SKY/WX    TMP DP  RH WIND       PRES   REMARKS
MUNCIE         FAIR      65  39  38 N15       29.94S
RICHMOND +     FAIR      61  43  51 N12       29.94S

$$

INZ060-061-067>069-081>083-085>088-252200-
SOUTHWEST INDIANA

CITY           SKY/WX    TMP DP  RH WIND       PRES   REMARKS
EVANSVILLE     FAIR      69  51  52 VRB3      29.96F
HUNTINGBURG +  FAIR      67  52  58 NW12      29.95F
WASHINGTON +   FAIR      66  46  47 NE5       29.96F

$$

INZ062-063-066-070>080-084-089>092-252200-
SOUTH CENTRAL AND SOUTHEAST INDIANA

CITY           SKY/WX    TMP DP  RH WIND       PRES   REMARKS
BATESVILLE +   MOSUNNY   64  48  55 MISG      29.94F
BEDFORD +      FAIR      66  45  45 NW8       29.95F
BLOOMINGTON    FAIR      63  49  60 N9        29.97F
FRENCH LICK *+ CLOUDY    66  37  34 CALM      29.95S
MADISON *+     FAIR      66  43  42 N8        29.96F
NORTH VERNON + FAIR      63  48  59 N13       29.96S
SEYMOUR +      FAIR      68  48  49 N10       29.95F

$$




USA.gov is the U.S. government's official web portal to all federal, state and local government web resources and services.